Regional Weather Roundup
Issued by NWS

Home | Current Version | Previous Version | Text Only | Print | Product List | Glossary On
Versions: 1 2 3 4 5 6 7 8 9 10 11 12 13 14 15 16 17 18 19 20 21 22 23 24 25 26 27 28 29 30 31 32 33 34 35 36 37 38 39 40 41 42 43 44 45 46 47 48 49 50
000
ASUS42 KFFC 010103
RWRGA
WEATHER ROUNDUP FOR GEORGIA
NATIONAL WEATHER SERVICE PEACHTREE CITY GA
800 PM EST SAT JAN 31 2015

NOTE: "FAIR" INDICATES FEW OR NO CLOUDS BELOW 12,000 FEET WITH NO
SIGNIFICANT WEATHER AND/OR OBSTRUCTIONS TO VISIBILITY.

* = USE WITH CAUTION. THE STATIONS MARKED WITH AN ASTERISK MAY NOT
REPORT WEATHER SUCH AS PRECIPITATION, FOG, OR THUNDER AND ARE NOT
QUALITY CONTROLLED BY NWS.

THE REMARK "TC" DENOTES TEMPERATURE READING IN DEGREES CELSIUS.

GAZ001>058-010200-
NORTH GEORGIA

CITY           SKY/WX    TMP DP  RH WIND       PRES   REMARKS
ATLANTA        MOCLDY    50  19  29 E5        30.29S
ATHENS         MOCLDY    44  25  47 E3        30.31S
CHAMBLEE       CLOUDY    47  22  37 CALM      30.29S
PEACHTREE CITY MOCLDY    42  29  59 CALM      30.29S
ROME           CLOUDY    44  26  49 CALM      30.29R
WEST ATLANTA   CLOUDY    46  26  45 CALM      30.29S
GAINESVILLE    CLOUDY    44  18  35 CALM      30.30F
CARTERSVILLE   CLOUDY    41  27  57 CALM      30.29F


CITY           SKY/WX    TMP DP  RH WIND       PRES   REMARKS
DALTON*        CLOUDY    43  23  45 CALM      30.30S
LAWRENCEVILLE* CLEAR     45  21  39 CALM      30.29S
KENNESAW*      CLOUDY    46  23  39 CALM      30.30F
$$

GAZ059>098-102>109-010200-
CENTRAL GEORGIA

CITY           SKY/WX    TMP DP  RH WIND       PRES   REMARKS
AUGUSTA-BUSH   MOCLDY    45  22  40 CALM      30.33S
AUGUSTA-DANIEL MOCLDY    51  17  26 S3        30.33S
COLUMBUS       PTCLDY    50  24  36 E5        30.29R
MACON          MOCLDY    42  27  55 CALM      30.32R
ROBINS AFB     MOCLDY    46  28  49 CALM      30.28S


CITY           SKY/WX    TMP DP  RH WIND       PRES   REMARKS
LAGRANGE*      PTCLDY    45  32  60 CALM      30.29R
SYLVANIA*      CLEAR     44  29  55 CALM      30.36R
MILLEDGEVILLE* MOCLDY    45  34  65 CALM      30.32S
$$

GAZ099>101-110>166-010200-
SOUTH GEORGIA

CITY           SKY/WX    TMP DP  RH WIND       PRES   REMARKS
SAVANNAH       CLEAR     42  25  50 SE5       30.37S
VALDOSTA       MOCLDY    45  35  68 CALM      30.31R
ALMA           MOCLDY    48  31  51 E6        30.33R
ST SIMONS      PTCLDY    43  36  76 N5        30.35S
FT STEWART     CLEAR     42  30  63 CALM      30.35S
ALBANY         MOCLDY    46  33  60 CALM      30.32R
HUNTER AFB     CLEAR     40  29  67 CALM      30.35S
MOODY AFB      MOCLDY    49  31  50 E3        30.30R
BRUNSWICK      PTCLDY    41  36  81 CALM      30.36F


CITY           SKY/WX    TMP DP  RH WIND       PRES   REMARKS
BAINBRIDGE*    MOCLDY    54  39  58 E3        30.29S
MOULTRIE*      MOCLDY    45  36  70 CALM      30.30S
VIDALIA*       CLEAR     46  30  53 SE6       30.34R
WAYCROSS*      MOCLDY    52  36  54 SE9       30.33S
DOUGLAS*       MOCLDY    52  32  46 E7        30.33R
$$


USA.gov is the U.S. government's official web portal to all federal, state and local government web resources and services.